Regional Weather Roundup
Issued by NWS

Home | Current Version | Previous Version | Text Only | Print | Product List | Glossary Off
Versions: 1 2 3 4 5 6 7 8 9 10 11 12 13 14 15 16 17 18 19 20 21 22 23 24 25 26 27 28 29 30 31 32 33 34 35 36 37 38 39 40 41 42 43 44 45 46 47 48 49 50

673
ASUS45 KTFX 202110
RWRMT
MONTANA REGIONAL WEATHER ROUNDUP
NATIONAL WEATHER SERVICE GREAT FALLS MT
200 PM MST SAT JAN 20 2018

NOTE: "FAIR" INDICATES FEW OR NO CLOUDS BELOW 12000 FEET WITH NO
SIGNIFICANT WEATHER AND/OR OBSTRUCTIONS TO VISIBILITY.

MTZ001>007-043-202200-
WEST OF THE DIVIDE

CITY           SKY/WX    TMP DP  RH WIND       PRES   REMARKS
KALISPELL      CLOUDY    35  29  78 SE16      29.95F WCI  25
MISSOULA       CLOUDY    34  25  69 CALM      29.98F
BUTTE          CLOUDY    23  16  74 E3        29.92F
MULLAN PASS    LGT SNOW  24  22  91 SW8       29.88S FOG     WCI  15
ANACONDA         N/A     30  19  64 S7        29.92F WCI  23
DEER LODGE       N/A     27  21  80 CALM      29.96S
EUREKA           N/A     37  27  65 MISG      29.94R
HAMILTON         N/A     37  21  52 S8        29.98F WCI  31
PLAINS           N/A     40  25  55 S1        29.98F
RONAN            N/A     36  28  75 S5        29.98F
THOMPSON FALLS   N/A     36  33  88 W2        30.03F
$$

MTZ008-052>055-202200-
SOUTHWEST MONTANA

CITY           SKY/WX    TMP DP  RH WIND       PRES   REMARKS
BOZEMAN        CLOUDY    29  18  63 CALM      29.95F
DILLON         FAIR      26  16  65 CALM      29.93F
ENNIS          SUNNY     27  16  63 CALM      29.97F
THREE FORKS      N/A     34  22  61 SW9       29.94F WCI  27
TWIN BRIDGES     N/A     28  12  51 CALM      29.95F
$$

MTZ009-010-012-014-046-048-049-054-202200-
EAST SLOPES AND CENTRAL MONTANA

CITY           SKY/WX    TMP DP  RH WIND       PRES   REMARKS
CUT BANK       FAIR      38  22  52 W23       29.79S WCI  27
GREAT FALLS    FAIR      40  18  41 SW20G26   29.84S
MALMSTROM AFB  FAIR      39  21  48 SW17G23   29.86S WCI  30
HELENA         CLOUDY    36  21  54 NW12      29.92F WCI  28
AUGUSTA        FAIR      35  20  54 W16       29.82S WCI  25
BOWMANS CRNR   FAIR      34  21  60 SW18      29.83S WCI  23
CHOTEAU          N/A     39  19  45 W9G20     29.83R
FAIRFIELD      FAIR      40  17  40 W16       29.82S
POWER          FAIR      35  22  58 W10       29.82F WCI  27
RAYNESFORD     FAIR      37  17  43 W14G23    29.85S WCI  29
ULM            FAIR      38  21  51 W22       29.86S WCI  27
WHITE SULPHUR    N/A     28  18  64 SW7G15    29.87F WCI  21
$$

MTZ011-013-016-021-045-047-050-051-202200-
NORTH CENTRAL MONTANA

CITY           SKY/WX    TMP DP  RH WIND       PRES   REMARKS
HAVRE          FAIR      32  26  78 SW14      29.84S WCI  22
LEWISTOWN      FAIR      32  21  64 SW12      29.86S WCI  23
N BAR RANCH    FAIR      34  14  44 NW13      29.86F WCI  25
CHINOOK          N/A     30  21  69 E5        29.85R
DENTON         FAIR      35  23  60 MISG      29.83S
GEYSER         FAIR      36  17  46 W15G21    29.84F WCI  27
GRASS RANGE    FAIR      36  17  47 W14       29.83F WCI  27
STANFORD       FAIR      37  15  42 NW10      29.84F WCI  29
WINIFRED       FAIR      36  23  59 SW12      29.85S WCI  27
$$

MTZ017>020-022>027-061-062-202200-
NORTHEAST MONTANA

CITY           SKY/WX    TMP DP  RH WIND       PRES   REMARKS
GLASGOW        FAIR      32  20  61 NW3       29.86F
GLENDIVE       FAIR      34  25  69 CALM      29.88S
JORDAN           N/A     34  25  69 W12       29.87F WCI  25
MALTA          SUNNY     25  18  74 W7        29.86S WCI  17
SIDNEY         FAIR      36  24  62 NW21      29.84R WCI  25
WOLF POINT     FAIR      33  21  61 W7        29.86F WCI  27
PLENTYWOOD       N/A     34  21  60 W14       29.81S WCI  24
POPLAR           N/A     30  19  64 SW5       29.86S
SCOBEY           N/A     32  18  56 SW8       29.81F WCI  25
$$

MTZ028>42-056>058-202200-
SOUTHCENTRAL AND SOUTHEAST MONTANA

CITY           SKY/WX    TMP DP  RH WIND       PRES   REMARKS
BAKER          FAIR      35  23  61 W16       29.88F WCI  25
BILLINGS       PTSUNNY   36  20  52 W13       29.90F WCI  27
LIVINGSTON     FAIR      29  18  63 W16       29.90F WCI  17
MILES CITY     FAIR      33  24  69 W8        29.90S WCI  26
BIG TIMBER     SUNNY     30  18  59 W24       29.89F WCI  16
EKALAKA          N/A     32  20  61 W8        29.87S WCI  25
FORSYTH          N/A     36  23  60 W5        29.90F
HARLOWTON      FAIR      31  20  63 NW21      29.87F WCI  18
LAUREL           N/A     37  18  44 W12G20    29.91F WCI  30
ROUNDUP          N/A     34  17  50 SW13      29.80F WCI  25
$$

REGIONAL REPORTS...DAKOTAS

CITY           SKY/WX    TMP DP  RH WIND       PRES   REMARKS
WILLISTON      FAIR      32  21  64 W10       29.84S WCI  24
MINOT          FAIR      38  23  55 SW17      29.79R WCI  28
DICKINSON      FAIR      36  23  59 W12       29.84R WCI  28
BEACH          FAIR      34  25  69 W10       29.89S WCI  26
CROSBY         FAIR      34  21  60 SW8       29.82R WCI  27
TIOGA          FAIR      32  25  74 W14       29.82R WCI  22
WATFORD CITY   FAIR      36  25  64 W9        29.85R WCI  29
BISMARCK       FAIR      41  26  55 W15       29.86S
GRAND FORKS    FAIR      36  30  79 SW8       29.81R WCI  30
FARGO          FAIR      38  31  76 SW7       29.84R
BUFFALO SD       N/A     37  24  59 NW12      29.83R WCI  29
RAPID CITY     CLOUDY    39  28  64 N12       29.88S WCI  32
$$

REGIONAL REPORTS...WYOMING/IDAHO/WASHINGTON

CITY           SKY/WX    TMP DP  RH WIND       PRES   REMARKS
GILLETTE       CLOUDY    31  25  78 NW5       29.88S
SHERIDAN       PTSUNNY   32  24  72 W5        29.90S
BUFFALO WY     CLOUDY    31  15  52 N12       29.88S WCI  22
CODY           CLOUDY    31  20  63 CALM      29.86F
YELLOWSTONE LA   N/A     19  10  68 VRB6      29.83F WCI  11
IDAHO FALLS    FAIR      33  16  49 N9        29.92F WCI  25
SALMON         CLOUDY    30  22  72 S3        30.01F
BOISE          FAIR      40  28  62 NW12      30.04F
SPOKANE        CLOUDY    36  32  85 S14       29.99S WCI  27
$$

REGIONAL REPORTS...ALBERTA

CITY           SKY/WX    TMP DP  RH WIND       PRES   REMARKS
CALGARY        PTSUNNY   39  12  33 W14       29.70S WCI  31
CARDSTON         N/A     37  21  52 W14G24      N/A  WCI  29
EDMONTON       CLOUDY    23  21  93 NE3       29.75S
FORT MCMURRAY  FLURRIES  18  16  93 VRB2      29.79S
HIGH LEVEL     FLURRIES  18  16  93 NW8       29.85R WCI   7
LETHBRIDGE     PTSUNNY   39  25  56 W24G39    29.76S WCI  28
LLOYDMINSTER   CLOUDY    27  23  86 W8        29.76R WCI  18
MEDICINE HAT   MOSUNNY   36  27  69 SW12      29.78S WCI  27
ONEFOUR          N/A     25  16  68 E7          N/A  WCI  17
PEACE RIVER    LGT SNOW  19  16  86 S2        29.79R FOG
PINCHER CREEK  MOSUNNY   34  23  64 W22G29    29.79R WCI  22
WATERTON GATE    N/A     34  21  60 SW16G28     N/A  WCI  23
$$

REGIONAL REPORTS...SASKATCHEWAN

CITY           SKY/WX    TMP DP  RH WIND       PRES   REMARKS
CORONACH         N/A     32  21  64 W14         N/A  WCI  22
CYPRESS HILLS    N/A     34  14  44 NW6         N/A  WCI  29
ESTEVAN        MOSUNNY   32  23  69 W13       29.79R WCI  22
MOOSE JAW        N/A     39  21  48 W9          N/A
PRINCE ALBERT  CLOUDY    21  14  73 S3        29.80R
REGINA         MOSUNNY   34  25  69 W9        29.78R WCI  26
ROCKGLEN         N/A     27  18  69 W15         N/A  WCI  15
SASKATOON      PTSUNNY   30  25  80 W6        29.79R WCI  24
SWIFT CURRENT  SUNNY     36  23  60 W13       29.75S WCI  27
VAL MARIE        N/A     28  19  69 W13         N/A  WCI  18
$$




USA.gov is the U.S. government's official web portal to all federal, state and local government web resources and services.